Lapse_Rate
4.2 4.7 5.1 5.1 5.1 5.1 5.0 5.1 4.9 5.4 5.3 5.3 5.6 5.6 5.4 5.3 5.5 5.3 5.5 5.8 6.3 6.7 6.3 6.5 6.5 6.4 6.4 6.4 6.2 6.2 6.2 6.2 6.2 6.1 6.1 6.0 6.0 6.0 6.1 6.1 6.2 6.1 5.9
3.3 3.9 4.5 4.8 5.0 4.8 4.9 4.8 4.7 5.1 5.0 5.2 5.4 5.4 5.4 5.5 5.4 5.4 5.7 6.1 6.3 6.4 6.4 6.5 6.4 6.2 6.1 6.0 6.0 6.1 6.2 6.2 6.2 6.2 6.3 6.2 6.2 6.5 6.4 6.3 6.2 6.0 5.9
3.9 3.8 4.3 4.4 4.7 4.7 4.7 4.6 4.7 4.9 5.2 5.6 5.2 5.2 5.4 5.4 5.6 5.8 6.1 6.6 6.7 6.6 6.5 6.4 6.2 6.1 5.9 5.7 5.8 5.7 5.8 5.8 6.0 6.0 6.1 6.2 6.3 6.4 6.3 6.2 6.0 6.0 5.9
3.4 3.6 4.1 4.3 4.1 4.3 4.4 4.5 4.7 5.1 5.4 5.6 5.0 5.1 5.2 5.6 5.8 6.2 6.5 6.7 6.5 6.5 6.4 6.5 6.3 5.9 5.8 5.8 5.9 5.9 5.8 5.7 5.8 5.9 6.1 6.1 6.3 6.3 6.2 6.2 6.0 5.9 5.9
3.6 3.5 3.6 3.7 3.8 4.3 4.1 4.3 4.8 5.3 5.6 5.5 5.1 5.1 5.4 5.9 6.1 6.4 6.5 6.5 6.4 6.5 6.3 6.4 6.1 5.9 5.7 5.7 5.6 5.5 5.4 5.4 5.5 5.7 5.8 5.9 6.1 6.1 6.1 6.0 5.8 5.8 6.0
3.8 4.1 4.3 4.3 4.6 4.4 4.8 4.7 4.7 5.5 5.5 5.3 5.0 5.3 5.7 6.0 6.2 6.3 6.3 6.3 6.4 6.3 6.4 6.0 5.8 5.7 5.8 5.6 5.6 5.5 5.4 5.4 5.5 5.6 5.8 5.8 5.8 5.8 5.8 5.8 5.8 5.7 5.7
4.2 4.3 4.4 4.5 4.5 4.6 4.8 4.7 5.0 5.3 5.1 5.0 5.2 5.6 5.8 6.1 6.3 6.3 6.3 6.4 6.5 6.3 6.0 5.7 5.6 5.7 5.4 5.4 5.3 5.4 5.5 5.6 5.5 5.5 5.8 6.0 5.7 5.6 5.5 5.4 5.6 5.7 5.7
4.7 4.6 4.6 4.6 4.8 5.1 5.0 5.0 5.3 5.2 5.1 5.1 5.5 5.6 5.8 6.1 6.1 6.2 6.3 6.3 6.2 5.9 5.9 5.7 6.0 5.9 5.4 5.2 5.4 5.4 5.5 5.2 5.1 5.3 5.5 5.7 5.9 6.2 6.2 6.0 5.9 5.5 5.6
4.7 4.8 4.8 4.8 5.0 4.9 5.0 5.1 5.0 5.0 5.0 5.3 5.6 5.8 6.2 6.3 6.1 5.9 5.9 6.2 6.2 6.1 6.0 5.8 5.9 5.6 5.6 5.5 5.7 5.4 5.4 5.2 5.1 5.2 4.9 5.0 5.0 5.0 4.9 5.6 6.2 6.4 6.1
4.6 4.6 4.9 4.9 4.9 4.9 5.0 5.1 4.7 4.8 5.0 5.5 5.6 6.1 5.9 5.9 6.2 6.1 6.0 5.9 6.0 5.9 5.8 5.8 5.5 5.5 5.6 5.7 5.6 5.3 5.5 5.4 5.3 5.0 5.0 5.1 5.2 5.0 5.0 5.2 4.2 5.0 5.4
5.2 4.9 4.6 5.0 4.8 4.9 5.0 4.9 4.9 5.1 5.1 5.1 5.5 5.7 5.7 5.8 5.9 6.1 6.2 6.2 6.3 5.9 5.7 5.8 6.0 5.7 5.8 5.7 5.1 5.6 5.5 5.3 5.3 5.2 4.8 5.1 5.2 5.2 5.3 5.3 5.2 5.3 5.3
5.0 4.9 4.9 4.9 5.0 4.9 5.0 5.0 5.2 5.2 4.9 5.1 5.6 5.7 5.7 5.8 6.0 6.0 6.0 6.1 6.2 6.3 6.0 5.6 5.8 5.7 5.8 5.7 5.7 5.3 5.3 5.2 5.2 5.0 4.8 5.0 5.1 5.0 5.3 5.5 5.5 5.5 5.4
5.0 5.0 4.8 4.7 4.7 4.8 5.1 5.4 5.4 5.6 5.2 5.1 5.2 5.4 5.6 5.9 5.9 5.9 6.0 6.3 6.1 5.8 6.0 5.9 5.4 5.8 5.7 5.7 5.5 5.6 5.3 5.1 4.9 4.9 4.7 4.8 5.1 5.2 5.3 5.4 5.5 5.6 5.6
4.9 4.8 4.8 4.9 4.9 4.8 4.9 5.0 5.5 5.7 5.1 5.1 5.2 5.1 5.3 5.5 5.5 5.8 5.6 5.9 6.0 5.8 6.1 5.8 5.8 5.9 5.7 5.9 5.7 5.5 5.2 5.0 4.8 4.9 5.0 5.1 5.2 5.3 5.5 5.4 5.4 5.4 5.5
5.7 5.3 4.9 5.2 5.1 5.3 5.5 5.8 5.7 5.4 5.5 5.5 5.5 5.4 5.4 5.6 5.7 5.6 5.6 6.0 5.7 5.9 5.7 5.9 5.6 5.7 5.6 5.6 5.4 5.3 5.3 5.3 5.1 5.3 5.3 5.3 5.2 5.4 5.3 5.4 5.5 5.5 5.5
6.6 6.3 6.4 6.4 6.3 6.1 5.8 5.8 5.8 5.8 5.7 5.7 5.4 5.3 5.7 5.7 5.6 5.6 5.6 5.7 6.1 6.0 5.5 5.7 5.7 5.7 5.5 5.4 5.4 5.2 5.3 5.3 5.5 5.4 5.3 5.2 5.4 5.5 5.4 5.5 5.5 5.5 5.5
7.2 7.0 6.9 6.7 6.5 6.3 6.3 6.2 6.2 6.3 6.0 5.7 5.8 5.7 5.7 5.7 5.7 5.6 5.6 5.4 5.5 5.9 5.7 5.6 5.5 5.7 5.6 5.4 5.5 5.3 5.3 5.4 5.6 5.6 5.5 5.3 5.4 5.4 5.4 5.4 5.4 5.5 5.5
6.9 6.9 6.8 6.6 6.5 6.6 6.4 6.5 6.4 6.0 5.3 5.6 5.7 5.9 5.8 5.9 5.8 5.7 5.7 5.6 5.7 5.9 5.7 5.7 5.8 5.4 5.6 5.3 5.5 5.3 5.6 5.5 5.6 5.5 5.3 5.3 5.4 5.6 5.5 5.5 5.5 5.4 5.3
7.1 6.9 6.8 6.7 6.8 6.7 6.5 6.3 6.1 6.1 5.6 5.6 5.8 5.7 5.4 5.4 5.7 5.6 5.8 5.9 6.0 5.9 5.8 6.0 5.8 5.7 5.7 5.3 5.5 5.2 5.4 5.3 5.3 5.5 5.5 5.4 5.5 5.4 5.3 5.2 5.2 5.1 4.8
7.0 7.0 6.9 6.5 6.5 6.5 6.2 6.3 6.4 6.4 6.0 6.1 5.9 5.8 5.6 5.6 5.8 5.6 5.8 6.5 6.1 6.0 5.9 5.6 5.7 5.5 5.7 5.5 5.4 5.0 5.3 5.3 5.2 5.1 5.2 5.2 5.1 5.0 5.1 4.9 4.6 4.7 4.8
7.0 7.0 6.8 6.8 6.5 6.4 6.4 6.6 6.2 5.8 5.7 6.0 6.1 6.1 6.0 5.6 5.6 5.8 5.9 6.0 6.0 5.7 5.7 5.7 5.5 5.5 5.5 5.3 5.1 5.3 5.4 5.3 5.0 4.9 4.9 4.9 4.9 4.8 4.7 4.5 4.7 4.9 5.0
7.0 6.8 6.9 6.9 6.8 6.6 6.5 6.2 5.9 5.9 5.6 5.9 6.0 6.0 5.9 6.1 6.1 6.3 6.2 6.0 6.0 6.1 5.9 5.7 5.7 5.5 5.6 5.2 5.4 5.1 5.2 5.0 5.0 4.9 4.7 4.9 4.8 4.7 4.3 4.4 4.7 4.8 4.8
7.3 7.1 7.0 7.0 6.8 6.7 6.4 6.3 6.2 5.9 6.2 6.3 6.3 6.3 6.3 6.2 6.2 6.1 6.1 6.4 6.1 6.1 6.0 5.6 5.9 5.5 5.1 5.2 5.4 5.5 5.2 4.7 4.7 4.5 4.5 4.4 4.3 4.2 4.1 4.3 4.5 4.8 4.9
7.6 7.3 7.2 7.2 7.0 6.8 6.7 6.5 6.4 6.1 6.3 6.3 6.3 6.3 6.3 6.2 6.3 6.3 6.4 6.5 6.4 6.0 5.9 5.7 5.7 5.4 5.2 5.7 5.7 5.3 4.8 4.5 4.4 4.3 4.0 3.9 4.0 3.9 3.9 4.3 4.6 4.8 4.8
7.8 7.6 7.4 7.2 7.1 7.1 6.9 6.8 6.6 6.6 6.5 6.4 6.3 6.2 6.4 6.2 6.5 6.4 6.2 5.9 6.1 6.0 5.4 5.4 5.1 5.3 5.5 5.6 5.2 4.5 4.2 4.0 3.9 3.7 3.7 3.8 3.7 3.7 4.0 4.4 4.6 4.8 4.8
7.7 7.6 7.4 7.2 7.1 6.9 6.9 6.9 6.9 6.8 6.7 6.8 6.9 6.6 6.3 6.4 6.3 6.5 5.8 5.7 5.6 5.5 5.3 5.2 5.2 5.2 5.4 5.2 4.4 3.7 3.5 3.3 3.3 3.4 3.4 3.7 3.7 3.6 4.0 4.6 4.9 4.9 4.8
Wind_Speed
10 15 18 18 19 21 21 18 15 15 15 14 14 14 12 11 11 14 17 17 16 16 15 16 14 14 13 13 13 12 11 11 11 10 9 9 9 9 9 9 9 8 9
13 12 15 14 13 16 18 16 15 15 13 13 12 13 11 12 10 11 16 17 16 14 13 14 14 13 12 11 10 10 10 10 10 8 8 8 7 7 6 6 6 5 5
18 15 14 10 11 16 17 14 15 14 11 11 10 12 11 10 10 9 13 15 16 14 16 15 14 14 13 12 11 10 9 8 9 9 8 8 7 6 5 4 3 3 3
20 16 10 10 12 13 12 13 10 8 8 8 8 7 9 10 10 10 9 11 14 15 15 17 17 15 14 13 12 11 11 10 9 9 9 8 8 7 6 5 4 3 1
19 17 12 11 16 14 11 8 8 7 7 7 7 7 7 8 11 12 11 11 11 11 14 20 19 18 17 15 14 13 12 13 12 11 11 11 10 10 9 7 7 7 6
19 16 18 16 16 12 9 8 9 6 7 7 7 6 6 7 9 10 11 12 12 12 12 12 19 19 20 19 17 16 14 14 14 13 13 14 14 13 13 12 11 11 10
23 16 13 17 16 9 11 9 7 7 5 6 6 5 5 6 7 7 10 11 13 14 15 13 13 13 17 22 19 18 16 16 16 17 17 17 17 17 17 16 14 13 13
18 12 15 10 13 6 7 6 9 6 5 6 4 5 5 6 9 10 10 10 9 12 12 16 14 16 13 15 19 22 20 18 17 17 19 21 21 21 21 20 19 18 17
17 16 12 12 7 6 8 10 10 11 7 6 7 4 2 4 2 5 10 4 9 9 12 16 18 17 17 14 11 18 22 20 16 15 16 17 20 23 24 24 24 22 21
16 18 14 13 9 12 12 11 9 9 9 8 7 8 4 1 2 4 3 6 7 9 6 12 11 17 16 16 18 18 17 20 20 17 17 19 20 21 22 22 26 28 27
16 15 13 13 12 11 10 11 11 12 10 9 8 6 8 2 6 7 10 6 7 8 10 12 17 17 18 16 16 16 17 19 19 16 15 15 17 19 21 23 27 26 30
6 10 12 11 14 11 11 11 11 13 12 11 9 8 7 4 8 10 11 12 7 3 5 8 12 13 14 15 14 14 14 17 13 10 8 8 10 13 15 17 20 25 29
8 12 13 11 9 15 16 15 10 13 13 13 11 10 9 10 10 8 8 3 4 5 5 5 9 10 11 10 13 14 13 10 7 6 6 7 9 11 14 16 18 19 22
14 15 13 16 18 20 18 16 11 10 11 10 14 13 10 11 10 10 7 5 3 5 3 6 7 11 11 12 11 14 11 9 5 5 7 9 10 11 13 15 17 20 22
15 17 19 20 18 19 19 14 11 12 12 13 13 13 10 8 8 8 6 6 6 4 7 7 7 12 12 12 11 11 11 11 9 7 7 9 11 11 13 15 17 19 21
19 19 19 19 19 18 17 17 14 15 15 12 8 12 11 9 9 6 8 9 7 6 5 9 9 7 13 9 10 9 10 6 11 8 7 8 11 12 14 16 18 20 21
20 20 20 20 19 19 19 17 18 17 16 13 12 12 11 9 7 8 7 8 8 8 7 1 4 6 7 8 9 9 7 11 10 10 8 10 12 14 16 16 16 19 19
20 21 20 21 21 20 19 19 18 13 12 12 12 11 13 8 10 9 7 11 9 9 6 11 8 8 8 3 4 6 9 9 10 7 5 9 13 15 16 16 16 17 18
21 21 21 21 21 20 20 18 16 15 14 17 12 12 14 12 11 10 10 10 9 6 6 8 5 3 1 3 4 6 7 8 11 9 12 13 15 12 14 15 18 17 17
21 21 20 19 19 19 19 18 18 14 14 13 12 11 11 12 13 13 11 12 9 8 6 7 5 3 3 4 0 5 6 5 6 10 10 12 11 14 18 20 18 18 17
20 21 18 20 19 18 14 15 14 15 14 13 10 10 10 12 14 13 9 9 9 7 6 7 5 3 4 3 5 5 5 5 7 9 6 8 11 14 14 14 17 15 13
21 20 19 19 18 12 13 16 15 13 11 11 9 6 5 10 9 11 11 10 11 10 10 7 6 4 5 4 5 6 5 5 6 6 6 8 12 9 14 15 12 17 20
18 19 17 18 19 18 14 16 16 11 10 11 11 9 7 5 10 10 15 17 14 13 4 5 6 6 5 5 5 6 7 7 7 8 8 9 9 10 13 16 13 14 18
17 15 17 17 16 12 13 16 16 8 6 8 9 10 10 10 10 12 10 9 8 7 5 3 4 4 3 4 5 6 7 8 8 9 10 10 8 9 10 15 16 19 15
13 14 10 13 13 6 10 12 12 8 8 8 8 9 10 11 15 17 12 9 9 7 8 8 9 7 4 1 3 4 6 6 7 8 7 7 7 9 9 11 15 7 12
6 3 5 3 5 4 11 16 14 8 10 8 9 10 14 14 18 13 8 9 8 8 7 7 6 6 7 8 6 9 5 6 7 6 3 3 6 7 5 6 7 18 16
Wind_Direction
143 147 138 149 156 149 160 162 154 155 151 156 156 154 151 139 140 140 147 152 153 151 150 145 146 142 139 137 138 137 130 127 126 120 117 110 104 96 91 86 79 74 72
143 158 133 141 151 154 158 155 164 158 153 150 156 149 149 148 155 146 143 158 159 162 163 161 162 162 154 149 149 149 145 145 141 137 138 137 130 122 116 106 95 77 67
167 141 146 134 146 151 159 152 163 160 154 160 157 156 154 158 152 156 152 159 169 178 177 177 178 177 172 170 170 167 161 162 161 157 156 166 164 157 151 137 122 98 69
146 142 137 133 124 137 142 164 168 158 156 168 160 163 165 168 167 169 176 174 176 183 191 191 189 191 190 190 188 187 187 185 181 181 178 188 187 185 191 187 182 187 196
144 153 133 135 151 153 153 166 161 157 165 172 172 171 177 181 184 188 189 195 195 200 192 193 203 201 202 207 205 205 202 201 197 198 198 202 203 207 211 212 211 213 222
149 149 160 158 167 166 154 157 148 171 187 172 173 180 188 198 197 206 206 205 207 213 219 213 204 217 212 215 220 218 221 216 213 212 215 217 216 215 221 223 223 225 229
151 165 152 165 167 160 155 143 147 184 179 176 176 179 198 214 215 217 216 216 218 217 225 225 227 222 211 217 227 228 229 230 225 223 224 225 227 226 226 231 234 236 239
143 137 163 157 173 148 116 150 169 186 185 185 201 195 200 202 219 217 217 216 215 221 215 229 227 225 230 229 225 227 233 237 239 236 228 233 235 236 237 238 236 238 240
161 156 174 170 156 134 180 183 186 196 195 188 211 235 182 249 128 200 220 223 230 221 223 233 227 223 216 239 241 224 229 241 253 261 263 256 244 244 243 245 247 244 247
173 177 178 186 141 199 201 197 196 209 219 198 195 229 258 66 296 236 193 206 211 219 220 233 223 231 221 216 227 236 228 240 249 257 266 270 275 276 275 263 254 247 247
192 178 175 197 190 204 211 206 204 211 218 227 207 183 218 197 238 255 272 213 199 212 220 215 230 228 220 222 239 235 234 252 253 257 258 266 268 274 277 277 276 262 256
196 184 203 198 207 213 215 214 211 209 213 227 224 210 212 200 222 234 248 256 243 175 230 238 236 227 219 214 223 226 238 242 243 243 252 269 284 289 293 289 286 280 279
192 201 218 214 213 222 229 222 218 220 214 223 216 227 231 242 245 247 260 252 225 232 218 207 230 217 210 199 212 205 210 212 208 230 262 285 293 298 295 293 293 294 291
195 202 208 214 222 228 235 235 237 237 230 230 228 225 233 237 239 225 215 202 236 219 230 239 215 208 202 197 182 179 184 194 207 225 253 277 290 300 302 301 299 297 297
196 201 207 209 216 219 225 229 230 230 228 234 233 234 226 226 235 233 212 190 210 194 215 204 213 201 194 176 178 199 214 177 209 237 262 284 294 301 304 304 304 301 299
202 201 204 210 212 216 224 229 233 234 237 235 228 223 218 224 217 209 207 216 204 209 222 227 211 184 199 183 170 216 221 204 222 237 258 282 297 301 298 299 300 300 299
202 206 210 215 219 223 226 230 233 238 236 234 222 227 221 198 214 216 204 204 202 205 217 188 200 164 179 199 187 215 226 242 239 220 247 284 300 298 296 296 295 296 297
209 213 217 220 223 228 230 233 234 225 225 217 232 217 217 201 194 214 201 208 197 197 199 195 185 191 206 183 214 232 238 249 261 254 252 283 286 281 283 283 284 290 294
220 220 223 225 227 230 233 234 226 215 224 239 235 226 220 192 195 204 195 188 193 179 204 206 173 173 125 201 211 223 241 253 258 260 268 264 264 266 279 284 284 289 294
221 224 224 226 228 229 226 221 224 231 237 235 227 210 209 203 206 197 191 188 180 170 180 181 182 153 197 178 219 257 249 239 272 278 275 262 269 264 261 258 264 269 276
219 221 219 221 224 225 224 217 210 220 227 223 212 207 209 204 203 194 184 172 150 156 168 172 178 170 187 177 208 246 259 275 280 274 275 275 278 284 283 269 271 260 298
219 222 223 222 220 223 211 210 206 218 205 205 190 180 176 167 151 145 145 142 155 159 172 181 178 188 206 187 216 232 251 256 276 205 246 278 282 279 283 286 295 299 288
219 223 225 224 228 228 194 202 198 218 200 193 172 158 144 135 134 122 102 99 84 68 90 149 161 191 197 201 219 236 248 255 262 275 285 276 275 275 284 287 282 285 284
218 223 228 230 234 232 185 196 197 199 166 155 156 161 145 135 131 122 109 108 104 105 110 94 141 134 188 195 224 250 273 276 273 266 262 270 271 281 287 289 292 286 280
210 216 216 219 219 203 183 154 138 127 118 115 120 132 135 127 133 129 123 130 127 121 96 84 83 75 83 116 280 282 253 260 270 268 267 272 266 292 303 291 282 247 261
189 135 94 99 122 131 158 152 140 134 130 124 115 111 116 124 129 133 134 146 147 151 155 164 164 171 196 188 204 240 262 259 271 280 182 293 302 314 304 290 305 311 309